Location: Valencia
(39.4696°N, 0.3770°W)
Time: 10:26:40
(UTC+01:00)

ISS - Visible Passes

Search period start: 26 October 2014 00:00
Search period end: 04 November 2014 23:00
Orbit: 412 x 416 km, 51.6° (Epoch: 26 October)

Date Brightness Start Highest point End Pass type
(mag) Time Alt. Az. Time Alt. Az. Time Alt. Az.
26 Oct -1.2 20:01:33 10° WNW 20:04:17 24° SW 20:05:00 22° SSW visible
27 Oct -2.2 19:11:58 10° WNW 19:15:10 43° SW 19:18:20 10° SSE visible
29 Oct -0.3 19:10:56 10° W 19:12:59 15° SW 19:15:02 10° SSW visible
